Time,TemperatureF,DewpointF,PressureIn,WindDirection,WindDirectionDegrees,WindSpeedMPH,WindSpeedGustMPH,Humidity,HourlyPrecipIn,Conditions,Clouds,dailyrainin,SoftwareType,DateUTC
2013-03-15 00:00:00,32.0,17.2,30.10,SW,236,0.0,0.0,54,0.00,,,0.00,Wunderground v.1.15,2013-03-15 04:00:00,
2013-03-15 00:10:00,32.0,17.6,30.10,NNW,330,1.0,1.0,55,0.00,,,0.00,Wunderground v.1.15,2013-03-15 04:10:00,
2013-03-15 00:20:00,31.9,17.5,30.10,North,5,0.0,0.0,55,0.00,,,0.00,Wunderground v.1.15,2013-03-15 04:20:00,
2013-03-15 00:30:00,31.7,17.4,30.10,ESE,103,0.0,6.0,55,0.00,,,0.00,Wunderground v.1.15,2013-03-15 04:30:00,
2013-03-15 00:40:00,31.7,17.4,30.10,WNW,303,1.0,1.0,55,0.00,,,0.00,Wunderground v.1.15,2013-03-15 04:40:00,
2013-03-15 00:50:00,31.6,17.3,30.09,SSE,165,1.0,1.0,55,0.00,,,0.00,Wunderground v.1.15,2013-03-15 04:50:00,
2013-03-15 01:00:00,31.4,17.1,30.09,ESE,120,0.0,0.0,55,0.00,,,0.00,Wunderground v.1.15,2013-03-15 05:00:00,
2013-03-15 01:10:00,31.3,17.0,30.09,South,169,1.0,1.0,55,0.00,,,0.00,Wunderground v.1.15,2013-03-15 05:10:00,
2013-03-15 01:20:00,31.2,16.9,30.09,SE,138,2.0,2.0,55,0.00,,,0.00,Wunderground v.1.15,2013-03-15 05:20:00,
2013-03-15 01:30:00,31.3,17.0,30.09,SSW,192,1.0,1.0,55,0.00,,,0.00,Wunderground v.1.15,2013-03-15 05:30:00,
2013-03-15 01:40:00,31.4,16.7,30.08,SSW,198,1.0,1.0,54,0.00,,,0.00,Wunderground v.1.15,2013-03-15 05:40:00,
2013-03-15 01:50:00,31.2,16.5,30.08,WSW,254,1.0,4.0,54,0.00,,,0.00,Wunderground v.1.15,2013-03-15 05:50:00,
2013-03-15 02:00:00,31.2,16.5,30.07,SW,218,1.0,1.0,54,0.00,,,0.00,Wunderground v.1.15,2013-03-15 06:00:00,
2013-03-15 02:10:00,31.0,16.7,30.07,SE,143,1.0,2.0,55,0.00,,,0.00,Wunderground v.1.15,2013-03-15 06:10:00,
2013-03-15 02:20:00,30.9,16.6,30.07,SSE,168,1.0,1.0,55,0.00,,,0.00,Wunderground v.1.15,2013-03-15 06:20:00,
2013-03-15 02:30:00,30.7,16.4,30.06,SSW,206,0.0,0.0,55,0.00,,,0.00,Wunderground v.1.15,2013-03-15 06:30:00,
2013-03-15 02:40:00,30.6,16.3,30.06,SSW,208,1.0,1.0,55,0.00,,,0.00,Wunderground v.1.15,2013-03-15 06:40:00,
2013-03-15 02:50:00,30.4,16.6,30.06,SSW,208,0.0,0.0,56,0.00,,,0.00,Wunderground v.1.15,2013-03-15 06:50:00,
2013-03-15 03:00:00,30.1,16.3,30.06,SW,234,0.0,0.0,56,0.00,,,0.00,Wunderground v.1.15,2013-03-15 07:00:00,
2013-03-15 03:10:00,29.9,16.1,30.05,West,259,1.0,1.0,56,0.00,,,0.00,Wunderground v.1.15,2013-03-15 07:10:00,
2013-03-15 03:20:00,29.8,16.4,30.05,North,360,1.0,1.0,57,0.00,,,0.00,Wunderground v.1.15,2013-03-15 07:20:00,
2013-03-15 03:30:00,29.7,16.7,30.06,WNW,302,0.0,2.0,58,0.00,,,0.00,Wunderground v.1.15,2013-03-15 07:30:00,
2013-03-15 03:40:00,29.5,16.5,30.06,SSE,153,1.0,1.0,58,0.00,,,0.00,Wunderground v.1.15,2013-03-15 07:40:00,
2013-03-15 03:50:00,29.4,16.4,30.05,NNW,348,0.0,6.0,58,0.00,,,0.00,Wunderground v.1.15,2013-03-15 07:50:00,
2013-03-15 04:00:00,29.4,16.4,30.06,SSE,149,1.0,4.0,58,0.00,,,0.00,Wunderground v.1.15,2013-03-15 08:00:00,
2013-03-15 04:10:00,29.4,16.4,30.05,South,184,1.0,1.0,58,0.00,,,0.00,Wunderground v.1.15,2013-03-15 08:10:00,
2013-03-15 04:20:00,29.4,16.8,30.05,South,183,0.0,0.0,59,0.00,,,0.00,Wunderground v.1.15,2013-03-15 08:20:00,
2013-03-15 04:30:00,29.4,16.8,30.04,SE,128,0.0,0.0,59,0.00,,,0.00,Wunderground v.1.15,2013-03-15 08:30:00,
2013-03-15 04:40:00,29.5,17.3,30.05,South,178,1.0,1.0,60,0.00,,,0.00,Wunderground v.1.15,2013-03-15 08:40:00,
2013-03-15 04:50:00,29.5,16.9,30.05,South,178,1.0,1.0,59,0.00,,,0.00,Wunderground v.1.15,2013-03-15 08:50:00,
2013-03-15 05:00:00,29.7,17.1,30.04,SSW,207,1.0,1.0,59,0.00,,,0.00,Wunderground v.1.15,2013-03-15 09:00:00,
2013-03-15 05:10:00,29.7,17.1,30.04,SSW,208,0.0,0.0,59,0.00,,,0.00,Wunderground v.1.15,2013-03-15 09:10:00,
2013-03-15 05:20:00,29.7,17.1,30.04,South,186,0.0,0.0,59,0.00,,,0.00,Wunderground v.1.15,2013-03-15 09:20:00,
2013-03-15 05:30:00,29.5,17.3,30.03,SW,215,0.0,0.0,60,0.00,,,0.00,Wunderground v.1.15,2013-03-15 09:30:00,
2013-03-15 05:40:00,29.3,17.1,30.03,SSE,147,0.0,0.0,60,0.00,,,0.00,Wunderground v.1.15,2013-03-15 09:40:00,
2013-03-15 05:50:00,29.2,17.0,30.03,SW,223,0.0,0.0,60,0.00,,,0.00,Wunderground v.1.15,2013-03-15 09:50:00,
2013-03-15 06:00:00,29.1,16.9,30.03,SSE,148,0.0,1.0,60,0.00,,,0.00,Wunderground v.1.15,2013-03-15 10:00:00,
2013-03-15 06:10:00,29.2,17.0,30.03,SSW,194,1.0,2.0,60,0.00,,,0.00,Wunderground v.1.15,2013-03-15 10:10:00,
2013-03-15 06:20:00,29.3,17.1,30.04,SSW,205,0.0,0.0,60,0.00,,,0.00,Wunderground v.1.15,2013-03-15 10:20:00,
2013-03-15 06:30:00,29.1,17.3,30.04,South,184,0.0,2.0,61,0.00,,,0.00,Wunderground v.1.15,2013-03-15 10:30:00,
2013-03-15 06:40:00,29.1,17.7,30.03,SW,219,1.0,1.0,62,0.00,,,0.00,Wunderground v.1.15,2013-03-15 10:40:00,
2013-03-15 06:50:00,29.2,17.8,30.03,ENE,78,0.0,0.0,62,0.00,,,0.00,Wunderground v.1.15,2013-03-15 10:50:00,
2013-03-15 07:00:00,29.3,17.9,30.03,SW,229,1.0,1.0,62,0.00,,,0.00,Wunderground v.1.15,2013-03-15 11:00:00,
2013-03-15 07:10:00,29.6,18.2,30.03,SW,236,1.0,1.0,62,0.00,,,0.00,Wunderground v.1.15,2013-03-15 11:10:00,
2013-03-15 07:20:00,29.9,18.5,30.03,SW,236,2.0,2.0,62,0.00,,,0.00,Wunderground v.1.15,2013-03-15 11:20:00,
2013-03-15 07:30:00,30.1,18.6,30.03,West,271,2.0,5.0,62,0.00,,,0.00,Wunderground v.1.15,2013-03-15 11:30:00,
2013-03-15 07:40:00,30.1,18.6,30.03,SSW,205,1.0,3.0,62,0.00,,,0.00,Wunderground v.1.15,2013-03-15 11:40:00,
2013-03-15 07:50:00,30.3,19.2,30.02,West,279,2.0,2.0,63,0.00,,,0.00,Wunderground v.1.15,2013-03-15 11:50:00,
2013-03-15 08:00:00,30.5,19.4,30.02,WNW,286,2.0,7.0,63,0.00,,,0.00,Wunderground v.1.15,2013-03-15 12:00:00,
2013-03-15 08:10:00,30.6,19.5,30.02,NW,309,2.0,2.0,63,0.00,,,0.00,Wunderground v.1.15,2013-03-15 12:10:00,
2013-03-15 08:20:00,30.7,20.0,30.02,WNW,294,3.0,5.0,64,0.00,,,0.00,Wunderground v.1.15,2013-03-15 12:20:00,
2013-03-15 08:30:00,31.0,20.2,30.02,SW,227,4.0,4.0,64,0.00,,,0.00,Wunderground v.1.15,2013-03-15 12:30:00,
2013-03-15 08:40:00,31.4,21.3,30.02,WSW,257,5.0,5.0,66,0.00,,,0.00,Wunderground v.1.15,2013-03-15 12:40:00,
2013-03-15 08:50:00,31.9,21.8,30.02,NW,307,5.0,5.0,66,0.00,,,0.00,Wunderground v.1.15,2013-03-15 12:50:00,
2013-03-15 09:00:00,32.6,22.5,30.02,West,260,4.0,4.0,66,0.00,,,0.00,Wunderground v.1.15,2013-03-15 13:00:00,
2013-03-15 09:10:00,33.1,23.0,30.02,WSW,244,4.0,4.0,66,0.00,,,0.00,Wunderground v.1.15,2013-03-15 13:10:00,
2013-03-15 09:20:00,33.4,23.3,30.02,West,279,4.0,7.0,66,0.00,,,0.00,Wunderground v.1.15,2013-03-15 13:20:00,
2013-03-15 09:30:00,33.6,23.4,30.02,WSW,242,5.0,5.0,66,0.00,,,0.00,Wunderground v.1.15,2013-03-15 13:30:00,
2013-03-15 09:40:00,33.8,23.3,30.02,WSW,245,3.0,3.0,65,0.00,,,0.00,Wunderground v.1.15,2013-03-15 13:40:00,
2013-03-15 09:50:00,34.4,24.2,30.01,SW,218,2.0,6.0,66,0.00,,,0.00,Wunderground v.1.15,2013-03-15 13:50:00,
2013-03-15 10:00:00,35.7,25.1,30.01,West,267,3.0,3.0,65,0.00,,,0.00,Wunderground v.1.15,2013-03-15 14:00:00,
2013-03-15 10:10:00,36.4,25.7,30.01,West,269,2.0,10.0,65,0.00,,,0.00,Wunderground v.1.15,2013-03-15 14:10:00,
2013-03-15 10:20:00,38.1,27.0,30.00,WNW,300,3.0,5.0,64,0.00,,,0.00,Wunderground v.1.15,2013-03-15 14:20:00,
2013-03-15 10:30:00,39.1,27.2,30.00,WNW,286,3.0,3.0,62,0.00,,,0.00,Wunderground v.1.15,2013-03-15 14:30:00,
2013-03-15 10:40:00,39.9,28.3,30.00,WNW,302,3.0,5.0,63,0.00,,,0.00,Wunderground v.1.15,2013-03-15 14:40:00,
2013-03-15 10:50:00,40.9,28.9,30.00,West,263,3.0,3.0,62,0.00,,,0.00,Wunderground v.1.15,2013-03-15 14:50:00,
2013-03-15 11:00:00,42.0,29.1,29.99,NW,311,2.0,2.0,60,0.00,,,0.00,Wunderground v.1.15,2013-03-15 15:00:00,
2013-03-15 11:10:00,42.5,29.6,29.98,SW,225,2.0,2.0,60,0.00,,,0.00,Wunderground v.1.15,2013-03-15 15:10:00,
2013-03-15 11:20:00,42.9,29.5,29.97,WSW,248,2.0,2.0,59,0.00,,,0.00,Wunderground v.1.15,2013-03-15 15:20:00,
2013-03-15 11:30:00,43.8,30.0,29.98,West,277,3.0,3.0,58,0.00,,,0.00,Wunderground v.1.15,2013-03-15 15:30:00,
2013-03-15 11:40:00,44.2,29.9,29.97,WSW,256,3.0,3.0,57,0.00,,,0.00,Wunderground v.1.15,2013-03-15 15:40:00,
2013-03-15 11:50:00,45.7,30.9,29.97,South,177,2.0,6.0,56,0.00,,,0.00,Wunderground v.1.15,2013-03-15 15:50:00,
2013-03-15 12:00:00,46.3,31.0,29.96,South,179,3.0,4.0,55,0.00,,,0.00,Wunderground v.1.15,2013-03-15 16:00:00,
2013-03-15 12:10:00,47.2,31.4,29.96,South,185,2.0,3.0,54,0.00,,,0.00,Wunderground v.1.15,2013-03-15 16:10:00,
2013-03-15 12:20:00,47.9,31.6,29.96,WSW,238,4.0,4.0,53,0.00,,,0.00,Wunderground v.1.15,2013-03-15 16:20:00,
2013-03-15 12:30:00,48.9,32.0,29.95,South,171,4.0,7.0,52,0.00,,,0.00,Wunderground v.1.15,2013-03-15 16:30:00,
2013-03-15 12:40:00,49.4,32.5,29.95,SSE,164,5.0,5.0,52,0.00,,,0.00,Wunderground v.1.15,2013-03-15 16:40:00,
2013-03-15 12:50:00,50.5,33.0,29.94,WNW,294,3.0,3.0,51,0.00,,,0.00,Wunderground v.1.15,2013-03-15 16:50:00,
2013-03-15 13:00:00,51.3,33.3,29.93,SSW,202,5.0,5.0,50,0.00,,,0.00,Wunderground v.1.15,2013-03-15 17:00:00,
2013-03-15 13:10:00,51.8,34.2,29.92,WNW,296,4.0,4.0,51,0.00,,,0.00,Wunderground v.1.15,2013-03-15 17:10:00,
2013-03-15 13:20:00,53.6,36.4,29.91,NW,311,5.0,6.0,52,0.00,,,0.00,Wunderground v.1.15,2013-03-15 17:20:00,
2013-03-15 13:30:00,54.7,35.9,29.90,SSE,148,5.0,5.0,49,0.00,,,0.00,Wunderground v.1.15,2013-03-15 17:30:00,
2013-03-15 13:40:00,55.2,36.9,29.90,WNW,291,3.0,3.0,50,0.00,,,0.00,Wunderground v.1.15,2013-03-15 17:40:00,
2013-03-15 13:50:00,56.4,36.9,29.89,South,183,4.0,4.0,48,0.00,,,0.00,Wunderground v.1.15,2013-03-15 17:50:00,
2013-03-15 14:00:00,56.5,36.5,29.88,WSW,245,5.0,10.0,47,0.00,,,0.00,Wunderground v.1.15,2013-03-15 18:00:00,
2013-03-15 14:10:00,56.1,37.2,29.88,SSW,209,6.0,6.0,49,0.00,,,0.00,Wunderground v.1.15,2013-03-15 18:10:00,
2013-03-15 14:20:00,56.8,37.3,29.86,ENE,71,5.0,5.0,48,0.00,,,0.00,Wunderground v.1.15,2013-03-15 18:20:00,
2013-03-15 14:30:00,57.3,38.3,29.85,SSW,196,5.0,5.0,49,0.00,,,0.00,Wunderground v.1.15,2013-03-15 18:30:00,
2013-03-15 14:40:00,57.5,38.5,29.85,SSE,166,6.0,9.0,49,0.00,,,0.00,Wunderground v.1.15,2013-03-15 18:40:00,
2013-03-15 14:50:00,57.6,38.0,29.84,West,259,6.0,6.0,48,0.00,,,0.00,Wunderground v.1.15,2013-03-15 18:50:00,
2013-03-15 15:00:00,57.6,38.0,29.84,West,265,6.0,6.0,48,0.00,,,0.00,Wunderground v.1.15,2013-03-15 19:00:00,
2013-03-15 15:10:00,58.3,38.7,29.83,West,277,5.0,5.0,48,0.00,,,0.00,Wunderground v.1.15,2013-03-15 19:10:00,
2013-03-15 15:20:00,59.0,37.7,29.82,NW,305,5.0,5.0,45,0.00,,,0.00,Wunderground v.1.15,2013-03-15 19:20:00,
2013-03-15 15:30:00,59.0,38.2,29.82,WNW,300,4.0,7.0,46,0.00,,,0.00,Wunderground v.1.15,2013-03-15 19:30:00,
2013-03-15 15:40:00,59.0,37.7,29.82,West,281,5.0,5.0,45,0.00,,,0.00,Wunderground v.1.15,2013-03-15 19:40:00,
2013-03-15 15:50:00,59.1,37.2,29.81,WNW,286,4.0,5.0,44,0.00,,,0.00,Wunderground v.1.15,2013-03-15 19:50:00,
2013-03-15 16:00:00,59.0,37.1,29.81,NW,321,4.0,7.0,44,0.00,,,0.00,Wunderground v.1.15,2013-03-15 20:00:00,
2013-03-15 16:10:00,58.7,36.8,29.81,WSW,244,4.0,4.0,44,0.00,,,0.00,Wunderground v.1.15,2013-03-15 20:10:00,
2013-03-15 16:20:00,58.2,36.9,29.81,SW,220,6.0,6.0,45,0.00,,,0.00,Wunderground v.1.15,2013-03-15 20:20:00,
2013-03-15 16:30:00,58.1,36.9,29.81,WNW,296,4.0,6.0,45,0.00,,,0.00,Wunderground v.1.15,2013-03-15 20:30:00,
2013-03-15 16:40:00,57.9,36.1,29.80,WNW,286,4.0,7.0,44,0.00,,,0.00,Wunderground v.1.15,2013-03-15 20:40:00,
2013-03-15 16:50:00,57.7,35.9,29.80,NW,304,5.0,5.0,44,0.00,,,0.00,Wunderground v.1.15,2013-03-15 20:50:00,
2013-03-15 17:00:00,57.4,35.6,29.81,NW,317,5.0,5.0,44,0.00,,,0.00,Wunderground v.1.15,2013-03-15 21:00:00,
2013-03-15 17:10:00,57.2,36.0,29.81,NW,318,5.0,5.0,45,0.00,,,0.00,Wunderground v.1.15,2013-03-15 21:10:00,
2013-03-15 17:20:00,56.9,35.8,29.81,WNW,291,5.0,5.0,45,0.00,,,0.00,Wunderground v.1.15,2013-03-15 21:20:00,
2013-03-15 17:30:00,56.6,35.5,29.80,WNW,301,5.0,5.0,45,0.00,,,0.00,Wunderground v.1.15,2013-03-15 21:30:00,
2013-03-15 17:40:00,56.3,35.8,29.81,South,178,5.0,5.0,46,0.00,,,0.00,Wunderground v.1.15,2013-03-15 21:40:00,
2013-03-15 17:50:00,56.0,35.5,29.81,WSW,253,5.0,5.0,46,0.00,,,0.00,Wunderground v.1.15,2013-03-15 21:50:00,
2013-03-15 18:00:00,55.7,35.8,29.80,WNW,288,4.0,4.0,47,0.00,,,0.00,Wunderground v.1.15,2013-03-15 22:00:00,
2013-03-15 18:10:00,55.5,35.6,29.80,West,276,4.0,8.0,47,0.00,,,0.00,Wunderground v.1.15,2013-03-15 22:10:00,
2013-03-15 18:20:00,55.4,36.0,29.80,WNW,287,3.0,5.0,48,0.00,,,0.00,Wunderground v.1.15,2013-03-15 22:20:00,
2013-03-15 18:30:00,55.2,35.8,29.80,West,267,3.0,4.0,48,0.00,,,0.00,Wunderground v.1.15,2013-03-15 22:30:00,
2013-03-15 18:40:00,54.9,35.6,29.80,West,279,4.0,4.0,48,0.00,,,0.00,Wunderground v.1.15,2013-03-15 22:40:00,
2013-03-15 18:50:00,54.9,36.1,29.80,SW,223,4.0,4.0,49,0.00,,,0.00,Wunderground v.1.15,2013-03-15 22:50:00,
2013-03-15 19:00:00,54.8,36.0,29.80,SW,222,3.0,3.0,49,0.00,,,0.00,Wunderground v.1.15,2013-03-15 23:00:00,
2013-03-15 19:10:00,54.5,35.7,29.80,WNW,302,3.0,3.0,49,0.00,,,0.00,Wunderground v.1.15,2013-03-15 23:10:00,
2013-03-15 19:20:00,54.2,35.4,29.80,SSW,207,3.0,3.0,49,0.00,,,0.00,Wunderground v.1.15,2013-03-15 23:20:00,
2013-03-15 19:30:00,53.8,35.6,29.80,WNW,292,3.0,3.0,50,0.00,,,0.00,Wunderground v.1.15,2013-03-15 23:30:00,
2013-03-15 19:40:00,53.4,35.2,29.80,WNW,293,2.0,7.0,50,0.00,,,0.00,Wunderground v.1.15,2013-03-15 23:40:00,
2013-03-15 19:50:00,53.0,35.3,29.81,WSW,242,2.0,2.0,51,0.00,,,0.00,Wunderground v.1.15,2013-03-15 23:50:00,
2013-03-15 20:00:00,52.7,35.6,29.81,West,267,2.0,4.0,52,0.00,,,0.00,Wunderground v.1.15,2013-03-16 00:00:00,
2013-03-15 20:10:00,52.4,35.3,29.81,WSW,250,2.0,2.0,52,0.00,,,0.00,Wunderground v.1.15,2013-03-16 00:10:00,
2013-03-15 20:20:00,52.2,35.6,29.81,SSW,192,2.0,2.0,53,0.00,,,0.00,Wunderground v.1.15,2013-03-16 00:20:00,
2013-03-15 20:30:00,51.9,35.3,29.80,South,169,2.0,4.0,53,0.00,,,0.00,Wunderground v.1.15,2013-03-16 00:30:00,
2013-03-15 20:40:00,51.8,35.7,29.81,WSW,246,3.0,3.0,54,0.00,,,0.00,Wunderground v.1.15,2013-03-16 00:40:00,
2013-03-15 20:50:00,51.7,35.6,29.80,West,277,3.0,3.0,54,0.00,,,0.00,Wunderground v.1.15,2013-03-16 00:50:00,
2013-03-15 21:00:00,51.4,35.3,29.80,WNW,298,1.0,1.0,54,0.00,,,0.00,Wunderground v.1.15,2013-03-16 01:00:00,
2013-03-15 21:10:00,51.0,35.4,29.80,SSW,213,1.0,1.0,55,0.00,,,0.00,Wunderground v.1.15,2013-03-16 01:10:00,
2013-03-15 21:20:00,50.3,35.2,29.80,South,191,1.0,3.0,56,0.00,,,0.00,Wunderground v.1.15,2013-03-16 01:20:00,
2013-03-15 21:30:00,49.7,35.1,29.80,NW,307,1.0,1.0,57,0.00,,,0.00,Wunderground v.1.15,2013-03-16 01:30:00,
2013-03-15 21:40:00,49.2,35.0,29.80,NW,319,1.0,1.0,58,0.00,,,0.00,Wunderground v.1.15,2013-03-16 01:40:00,
2013-03-15 21:50:00,48.9,35.2,29.80,NW,319,0.0,0.0,59,0.00,,,0.00,Wunderground v.1.15,2013-03-16 01:50:00,
2013-03-15 22:00:00,48.7,35.0,29.80,SSW,203,0.0,0.0,59,0.00,,,0.00,Wunderground v.1.15,2013-03-16 02:00:00,
2013-03-15 22:10:00,48.3,35.0,29.80,WSW,244,0.0,1.0,60,0.00,,,0.00,Wunderground v.1.15,2013-03-16 02:10:00,
2013-03-15 22:20:00,47.9,35.1,29.80,West,271,1.0,1.0,61,0.00,,,0.00,Wunderground v.1.15,2013-03-16 02:20:00,
2013-03-15 22:30:00,47.6,35.2,29.80,West,273,0.0,0.0,62,0.00,,,0.00,Wunderground v.1.15,2013-03-16 02:30:00,
2013-03-15 22:40:00,47.4,35.0,29.80,West,273,0.0,0.0,62,0.00,,,0.00,Wunderground v.1.15,2013-03-16 02:40:00,
2013-03-15 22:50:00,47.2,35.2,29.80,West,274,0.0,0.0,63,0.00,,,0.00,Wunderground v.1.15,2013-03-16 02:50:00,
2013-03-15 23:00:00,46.9,35.0,29.80,West,272,0.0,0.0,63,0.00,,,0.00,Wunderground v.1.15,2013-03-16 03:00:00,
2013-03-15 23:10:00,46.7,35.2,29.80,West,272,0.0,0.0,64,0.00,,,0.00,Wunderground v.1.15,2013-03-16 03:10:00,
2013-03-15 23:20:00,46.5,35.0,29.80,West,272,0.0,2.0,64,0.00,,,0.00,Wunderground v.1.15,2013-03-16 03:20:00,
2013-03-15 23:30:00,46.3,35.2,29.80,West,272,0.0,0.0,65,0.00,,,0.00,Wunderground v.1.15,2013-03-16 03:30:00,
2013-03-15 23:40:00,46.3,35.2,29.79,WNW,300,0.0,0.0,65,0.00,,,0.00,Wunderground v.1.15,2013-03-16 03:40:00,
2013-03-15 23:50:00,46.2,35.1,29.78,WNW,300,0.0,0.0,65,0.00,,,0.00,Wunderground v.1.15,2013-03-16 03:50:00,